Regional Weather Roundup
Issued by NWS

Home | Current Version | Previous Version | Graphics & Text | Print | Product List | Glossary On
Versions: 1 2 3 4 5 6 7 8 9 10 11 12 13 14 15 16 17 18 19 20 21 22 23 24 25 26 27 28 29 30 31 32 33 34 35 36 37 38 39 40 41 42 43 44 45 46 47 48 49 50
000
ASUS43 KFSD 011702
RWRSD

WEATHER ROUNDUP FOR SOUTH DAKOTA
NATIONAL WEATHER SERVICE SIOUX FALLS SD
1200 PM CDT WED OCT 01 2014

NOTE: "FAIR" INDICATES FEW OR NO CLOUDS BELOW 12,000 FEET WITH NO
SIGNIFICANT WEATHER AND/OR OBSTRUCTIONS TO VISIBILITY.


SDZ001>005-009-010-012>017-011800-
NORTHWEST AND NORTH CENTRAL SOUTH DAKOTA

CITY           SKY/WX    TMP DP  RH WIND       PRES   REMARKS
BUFFALO          N/A     50  44  80 NW23      29.78S
FAITH            N/A     58  49  72 W18G25    29.81R
MOBRIDGE       PTSUNNY   64  50  60 NW18G25   29.73R
$$

SDZ012>016-024>037-041>051-057-063-072>074-011800-
SOUTHWEST AND SOUTH CENTRAL SOUTH DAKOTA

CITY           SKY/WX    TMP DP  RH WIND       PRES   REMARKS
RAPID CTY ARPT PTSUNNY   60  44  55 N22G28    29.86R
PIERRE         MOSUNNY   66  51  58 NW17      29.78S
CUSTER         LGT RAIN  49  40  71 CALM      29.90R
ELLSWORTH AFB  CLOUDY    56  43  62 N22G28    29.86R
PHILIP         MOSUNNY   64  48  56 NW17      29.82F
PINE RIDGE     CLOUDY    60  48  64 W5        29.86R
WINNER         FAIR      67  50  54 NW12      29.81R
$$

SDZ004>011-016>023-039-040-011800-
NORTHEAST SOUTH DAKOTA

CITY           SKY/WX    TMP DP  RH WIND       PRES   REMARKS
ABERDEEN       PTSUNNY   66  52  60 NW10      29.71F
WATERTOWN      MOSUNNY   66  54  65 W10       29.72S
SISSETON         N/A     67  56  67 NW12      29.69S
$$

SDZ017-020-022-023-036>040-048>070-011800-
SOUTHEAST SOUTH DAKOTA

CITY           SKY/WX    TMP DP  RH WIND       PRES   REMARKS
SIOUX FALLS    PTSUNNY   69  60  73 SW7       29.73R
HURON          MOSUNNY   68  52  56 NW10      29.73F
CHAMBERLAIN    SUNNY     67  49  52 N13       29.78S
MITCHELL       SUNNY     71  52  50 NW12      29.74S
YANKTON        MOSUNNY   72  59  64 W13       29.73S
$$

ABBREVIATIONS USED IN REMARKS
   TC - TEMPERATURE IN CELSIUS
  WCI - WIND CHILL INDEX
   HX - HEAT INDEX
  VSB - VISIBILITY




USA.gov is the U.S. government's official web portal to all federal, state and local government web resources and services.